Stations météo

réclame
Mon MeteoGroup
Ponferrada, Espagne (8053): Température de l'air & dewpoint: 17.09.2018 02:00:00 - 23.09.2018 02:00:00 (CEST)Ponferrada, Espagne (8053): Vitesse du vent: 17.09.2018 02:00:00 - 23.09.2018 02:00:00 (CEST)Ponferrada, Espagne (8053): Direction du vent: 17.09.2018 02:00:00 - 23.09.2018 02:00:00 (CEST)Ponferrada, Espagne (8053): reduced air pressure: 17.09.2018 02:00:00 - 23.09.2018 02:00:00 (CEST)Ponferrada, Espagne (8053): visibility: 17.09.2018 02:00:00 - 23.09.2018 02:00:00 (CEST)Ponferrada, Espagne (8053): Quantités de précipitations: 17.09.2018 02:00:00 - 23.09.2018 02:00:00 (CEST)
Date & Time tt [°C] td [°C] ff [km/h] ff [knt] dd ppp [hPa] vv [km] rr [mm]
23.09.2018 02:00:00 18,8 13,9 4 2 NNW 1024,7 20 -
23.09.2018 01:00:00 19,8 13,9 4 2 S 1024,4 20 0,0
23.09.2018 00:00:00 21,2 14,1 4 2 SSE 1023,9 20 0,0
22.09.2018 23:00:00 22,7 14,3 4 2 SSE 1023,1 20 -
22.09.2018 22:00:00 23,4 14,7 4 2 SSE 1022,5 20 0,0
22.09.2018 21:00:00 26,4 14,8 4 2 SE 1020,9 19 0,0
22.09.2018 20:00:00 31,2 13,9 4 2 WSW 1019,3 20 -
22.09.2018 19:00:00 31,6 13,4 5 3 WNW 1018,9 19 0,0
22.09.2018 18:00:00 31,3 14,0 5 3 NW 1019,1 20 0,0
22.09.2018 17:00:00 31,3 13,6 4 2 WSW 1019,5 20 -
22.09.2018 16:00:00 30,2 13,5 5 3 SW 1020,4 20 0,0
22.09.2018 15:00:00 28,3 14,9 5 3 WSW 1021,1 16 0,0
22.09.2018 14:00:00 26,0 15,1 2 1 W 1022,3 20 -
22.09.2018 13:00:00 23,1 14,9 4 2 WNW 1023,5 19 0,0
22.09.2018 12:00:00 20,6 14,0 4 2 NNW 1024,4 20 0,0
22.09.2018 11:00:00 18,2 13,5 4 2 WNW 1025,0 19 -
22.09.2018 10:00:00 16,0 13,1 4 2 NW 1025,2 20 0,0
22.09.2018 09:00:00 13,9 12,5 2 1 NNW 1025,4 19 0,0
22.09.2018 08:00:00 13,4 12,1 4 2 SSE 1024,9 18 -
22.09.2018 07:00:00 14,1 12,1 2 1 NE 1024,2 18 0,0
22.09.2018 06:00:00 14,8 12,8 2 1 NNW 1023,9 19 0,0
22.09.2018 05:00:00 14,9 12,8 5 3 SSE 1024,0 19 -
22.09.2018 04:00:00 15,7 13,2 4 2 NNW 1023,7 19 0,0
22.09.2018 03:00:00 16,3 13,4 2 1 SSE 1023,6 19 0,0
22.09.2018 02:00:00 17,2 13,7 4 2 SE 1023,3 20 -
22.09.2018 01:00:00 18,0 13,9 2 1 WNW 1023,0 20 0,0
22.09.2018 00:00:00 18,8 14,3 4 2 SSE 1022,5 20 0,0
21.09.2018 23:00:00 19,5 14,5 5 3 SE 1022,0 20 -
21.09.2018 22:00:00 20,9 14,5 4 2 S 1021,3 20 0,0
21.09.2018 21:00:00 22,7 14,5 5 3 WSW 1020,1 19 0,0
21.09.2018 20:00:00 24,3 14,7 8 4 WNW 1019,3 20 -
21.09.2018 19:00:00 25,6 14,4 11 6 WNW 1018,9 20 0,0
21.09.2018 18:00:00 26,2 14,6 9 5 W 1018,6 20 0,0
21.09.2018 17:00:00 26,2 14,0 5 3 W 1018,8 20 -
21.09.2018 16:00:00 25,9 14,0 5 3 SW 1019,0 19 0,0
21.09.2018 15:00:00 24,4 13,3 8 4 NW 1019,8 19 0,0
21.09.2018 14:00:00 22,8 11,8 8 4 W 1020,8 19 -
21.09.2018 13:00:00 20,9 11,8 4 2 WSW 1021,8 20 0,0
21.09.2018 12:00:00 17,8 11,8 4 2 SW 1022,8 20 0,0
21.09.2018 11:00:00 16,3 11,0 4 2 W 1022,8 19 -
21.09.2018 10:00:00 15,2 10,8 2 1 SW 1023,0 19 0,0
21.09.2018 09:00:00 12,8 9,8 5 3 SSE 1023,0 18 0,0
21.09.2018 08:00:00 12,7 9,5 2 1 E 1022,0 18 -
21.09.2018 07:00:00 12,6 9,6 2 1 SE 1022,2 15 0,0
21.09.2018 06:00:00 13,2 9,4 2 1 NE 1021,3 18 0,0
21.09.2018 05:00:00 13,6 9,6 5 3 SSE 1021,1 20 -
21.09.2018 04:00:00 14,4 9,6 2 1 SE 1020,7 8 0,0
21.09.2018 03:00:00 15,1 10,3 2 1 ESE 1020,6 20 0,0
21.09.2018 02:00:00 16,2 10,1 4 2 SE 1020,3 20 -
21.09.2018 01:00:00 17,2 10,3 2 1 SW 1020,3 18 0,0
21.09.2018 00:00:00 18,6 10,2 2 1 ENE 1019,6 20 0,0
20.09.2018 23:00:00 20,7 9,6 5 3 W 1019,2 20 -
20.09.2018 22:00:00 21,8 9,0 2 1 NW 1018,2 19 0,0
20.09.2018 21:00:00 23,8 8,6 8 4 W 1017,2 19 0,0
20.09.2018 20:00:00 26,5 9,8 11 6 WNW 1016,0 20 -
20.09.2018 19:00:00 29,0 8,6 9 5 NW 1014,7 11 0,0
20.09.2018 18:00:00 30,0 9,0 13 7 W 1014,1 20 0,0
20.09.2018 17:00:00 30,8 9,6 16 9 WNW 1014,2 20 -
20.09.2018 16:00:00 29,3 10,9 5 3 W 1015,1 18 0,0
20.09.2018 15:00:00 27,4 10,6 5 3 W 1016,5 19 0,0
20.09.2018 14:00:00 24,7 11,3 5 3 NNE 1017,9 19 -
20.09.2018 13:00:00 22,0 10,8 4 2 SSW 1019,5 19 0,0
20.09.2018 12:00:00 19,0 10,0 5 3 WNW 1020,8 19 0,0
20.09.2018 11:00:00 16,5 9,7 2 1 WSW 1021,9 19 -
20.09.2018 10:00:00 14,1 9,3 2 1 SW 1022,4 17 0,0
20.09.2018 09:00:00 11,2 8,8 2 1 NNW 1023,0 16 0,0
20.09.2018 08:00:00 10,4 8,3 2 1 E 1023,0 17 -
20.09.2018 07:00:00 11,1 8,5 2 1 NW 1022,8 17 0,0
20.09.2018 06:00:00 11,6 8,8 2 1 E 1022,6 17 0,0
20.09.2018 05:00:00 12,6 9,1 0 0 N 1022,6 18 -
20.09.2018 04:00:00 13,1 9,2 2 1 SE 1022,8 18 0,0
20.09.2018 03:00:00 14,0 9,4 2 1 ENE 1022,7 19 0,0
20.09.2018 02:00:00 15,5 9,8 2 1 S 1022,4 19 -
20.09.2018 01:00:00 16,3 9,9 4 2 S 1022,4 19 0,0
20.09.2018 00:00:00 17,8 10,4 4 2 SSE 1022,0 20 0,0
19.09.2018 23:00:00 18,9 10,7 2 1 SSE 1021,7 19 -
19.09.2018 22:00:00 21,0 10,8 4 2 E 1020,3 20 0,0
19.09.2018 21:00:00 24,0 10,3 8 4 WNW 1019,1 20 0,0
19.09.2018 20:00:00 27,7 9,5 8 4 WNW 1017,7 20 -
19.09.2018 19:00:00 29,7 9,8 9 5 W 1016,8 18 0,0
19.09.2018 18:00:00 30,4 10,9 8 4 W 1016,5 20 0,0
19.09.2018 17:00:00 29,3 11,4 4 2 S 1016,9 19 -
19.09.2018 16:00:00 28,3 11,8 4 2 NW 1017,8 20 0,0
19.09.2018 15:00:00 26,5 11,0 4 2 SSE 1018,9 20 0,0
19.09.2018 14:00:00 23,8 12,4 5 3 NW 1019,9 20 -
19.09.2018 13:00:00 21,5 11,8 4 2 W 1021,2 19 0,0
19.09.2018 12:00:00 18,9 11,0 4 2 W 1022,2 19 0,0
19.09.2018 11:00:00 16,2 10,5 4 2 W 1022,7 20 -
19.09.2018 10:00:00 14,2 9,8 4 2 NW 1023,3 20 0,0
19.09.2018 09:00:00 12,2 10,1 2 1 S 1023,2 19 0,0
19.09.2018 08:00:00 11,4 9,3 2 1 ESE 1022,9 20 -
19.09.2018 07:00:00 12,4 9,8 2 1 NNW 1021,9 20 0,0
19.09.2018 06:00:00 12,7 9,9 2 1 ESE 1021,5 20 0,0
19.09.2018 05:00:00 13,3 10,5 2 1 ESE 1021,0 20 -
19.09.2018 04:00:00 14,0 10,8 2 1 E 1020,5 20 0,0
19.09.2018 03:00:00 15,1 11,1 2 1 S 1020,4 20 0,0
19.09.2018 02:00:00 15,9 10,6 2 1 E 1020,2 20 -
19.09.2018 01:00:00 16,8 10,9 2 1 S 1019,9 20 0,0
19.09.2018 00:00:00 18,1 10,7 4 2 SSE 1018,9 20 0,0
18.09.2018 23:00:00 19,3 10,6 2 1 SSW 1018,3 20 -
18.09.2018 22:00:00 20,6 10,4 4 2 SE 1017,9 20 0,0
18.09.2018 21:00:00 23,4 10,4 4 2 ESE 1016,6 20 0,0
18.09.2018 20:00:00 25,4 9,2 5 3 WNW 1015,3 6 -
18.09.2018 19:00:00 28,1 8,9 13 7 NW 1013,9 20 0,0
18.09.2018 18:00:00 29,3 10,4 11 6 NW 1013,1 20 0,0
18.09.2018 17:00:00 29,4 12,8 8 4 NNW 1013,0 20 -
18.09.2018 16:00:00 28,6 12,5 8 4 NW 1013,6 8 0,0
18.09.2018 15:00:00 27,0 11,5 5 3 SW 1014,6 20 0,0
18.09.2018 14:00:00 25,0 9,3 4 2 NNW 1015,5 20 -
18.09.2018 13:00:00 22,7 11,1 5 3 W 1016,6 20 0,0
18.09.2018 12:00:00 20,3 11,0 4 2 W 1017,3 20 0,0
18.09.2018 11:00:00 17,4 10,5 4 2 WNW 1018,1 20 -
18.09.2018 10:00:00 15,3 10,5 4 2 SE 1018,1 18 0,0
18.09.2018 09:00:00 12,7 10,1 2 1 NNW 1018,6 18 0,0
18.09.2018 08:00:00 12,1 9,5 2 1 E 1018,1 18 -
18.09.2018 07:00:00 13,1 10,1 2 1 WNW 1017,5 18 0,0
18.09.2018 06:00:00 13,4 10,2 2 1 ESE 1017,2 17 0,0
18.09.2018 05:00:00 14,5 11,1 5 3 S 1016,4 19 -
18.09.2018 04:00:00 15,7 10,9 2 1 NW 1016,1 20 0,0
18.09.2018 03:00:00 16,5 11,0 2 1 ENE 1016,1 20 0,0
18.09.2018 02:00:00 17,3 10,7 5 3 SSE 1015,5 20 -
18.09.2018 01:00:00 18,4 11,2 4 2 S 1015,3 20 0,0
18.09.2018 00:00:00 19,8 10,8 4 2 ESE 1015,0 20 0,0
17.09.2018 23:00:00 21,1 10,9 2 1 ESE 1014,6 20 -
17.09.2018 22:00:00 23,5 10,9 5 3 WNW 1013,6 20 0,0
17.09.2018 21:00:00 25,4 12,3 2 1 E 1012,1 20 0,0
17.09.2018 20:00:00 29,0 12,8 5 3 W 1010,9 20 -
17.09.2018 19:00:00 29,7 12,6 9 5 WNW 1010,4 20 0,0
17.09.2018 18:00:00 30,3 12,7 9 5 W 1010,2 18 0,0
17.09.2018 17:00:00 29,6 12,9 4 2 SE 1010,9 20 -
17.09.2018 16:00:00 29,2 12,6 5 3 S 1011,9 20 0,0
17.09.2018 15:00:00 26,5 12,2 5 3 S 1013,3 20 0,0
17.09.2018 14:00:00 23,7 12,0 8 4 SE 1014,9 20 -
17.09.2018 13:00:00 23,1 11,2 5 3 WSW 1015,9 20 0,0
17.09.2018 12:00:00 20,5 10,9 4 2 W 1017,2 20 0,0
17.09.2018 11:00:00 17,5 10,4 2 1 W 1018,4 20 -
17.09.2018 10:00:00 14,6 10,0 2 1 W 1019,1 18 0,0
17.09.2018 09:00:00 12,4 9,6 2 1 NW 1019,9 20 0,0
17.09.2018 08:00:00 11,8 9,4 2 1 ESE 1019,7 18 -
17.09.2018 07:00:00 12,6 9,6 2 1 NW 1019,4 19 0,0
17.09.2018 06:00:00 12,8 9,6 2 1 E 1019,7 20 0,0
17.09.2018 05:00:00 13,5 9,9 2 1 E 1019,5 19 -
17.09.2018 04:00:00 14,0 9,8 2 1 E 1019,7 20 0,0
17.09.2018 03:00:00 14,8 10,0 2 1 E 1019,7 20 0,0
17.09.2018 02:00:00 15,8 10,8 2 1 E 1019,7 20 -

tt = Température de l'air
td = dewpoint
ff = Vitesse du vent
dd = Direction du vent
ppp = reduced air pressure
vv = visibility
rr = Quantités de précipitations

stations d'obs. à proximité